Showing default

YUNHAI 2-1B, 43910

Orbit data source: Space-Track

YUNHAI 2-1B, 43910 is a payload satellite owned by CASC (CN) in LEO that was launched on Sat, 29 Dec 2018 UTC via a CHANG ZHENG 2D/YZ-3 launch vehicle from the Jiuquan Satellite Launch Center, China (JSC). Payload-class satellites include a variety of spacecraft equipped with specific instruments for various scientific and technological missions. These include communications satellites like Starlink; space stations such as the ISS; scientific satellites like the Hubble; Earth observation satellites from companies like Planet Labs, Umbra, and HawkEye 360; GPS; miniature CubeSats for education and research; and military/defense satellites.

Loading next visibility...
Identifier
43910, 2018-112B
Orbit
LEO
Last TLE update
5 hours ago
Origin
Manufacturer
DFH Shenzhen
Mission
Operational Defense Meteo Radio Occ.
Bus & Motor
YH-2, Unknown motor
Mass
~100 kg wet, ~100 kg dry
Launch date (UTC)
2018-12-29 (6 years ago)
Launch vehicle
CHANG ZHENG 2D/YZ-3
Launch site
Jiuquan Satellite Launch Center, China (JSC)
Object type
Payload
Rocket body
Debris
Shape & HBR
Box + 2 Pan, 1 m
Radar Cross Section
0.166 m², Large (>1 m²)

Expand to show TLE details & history

TLE from 5 hours ago
0 YUNHAI 2-1B
1 43910U 18112B   25129.17078208  .00000209  00000-0  14628-3 0  9997
2 43910  50.0138  22.4720 0004671 246.5053 113.5372 14.28773192332471
Epoch: 2025-05-09T04:05Z
Definitive object data (Epoch: 2025-05-09T04:05:55.571Z)
Latitude
Longitude
93.75969°
Altitude
797.706 km
Speed
7.455 km/s
True Right ascension
01h 29m 53s
True Declination
0° 00' 00"
Sunlit
Object was in daylight at TLE epoch
Visualization TLE readout
Latitude
48.63681°
Longitude
164.15387°
Altitude
804.351 km
Speed
7.455 km/s
Apparent Right ascension
05h 55m 04s
Apparent Declination
7° 40' 13"
Sunlit
Object is in daylight
Visualization observer readout
Local Sidereal Time
17:39:09
Azimuth
354.67° N
Elevation
-42.272°
Doppler factor
1
Orbital elements
Apogee altitude
799.923 km
Perigee altitude
793.221 km
Semi-major axis
7,174.709 km
Eccentricity
0.0004671
Inclination
50.0138°
RAAN
22.472°
Arg. of periapsis
246.5053°
True anomaly
113.58626°
Mean anomaly
113.5372°
Eccentric anomaly
113.56173°
Mean motion
3.57139 °/min
BSTAR
0.00014628
Orbital period
100.8 mins
Loading maneuver chart data...
Loading SW <> Apogee altitude chart data...
Loading historical data...
Loading historical data...
Loading historical data...
Loading historical data...
Loading historical data...
Loading historical data...
Loading historical data...

YUNHAI 2-1B Visibility forecast

Observer location: undefined°, undefined°

Span
Click to sort rows by Start time (UTC) header in descending order
Start Az.
Max El. time (UTC)
Max El. Az.
Max El.
End time (UTC)
End Az.
10 mins2025-05-09 19:21:49.642Z213.257° SW2025-05-09 19:26:49.642Z128.784° SE38.959°2025-05-09 19:31:49.642Z63.072° ENE
8 mins2025-05-09 21:08:49.642Z274.125° WNW2025-05-09 21:11:49.642Z326.135° NNW35.126°2025-05-09 21:16:49.642Z47.734° ENE
7 mins2025-05-09 22:55:49.642Z314.651° NW2025-05-09 22:58:49.642Z2.386° NNE25.459°2025-05-09 23:02:49.642Z54.591° ENE
8 mins2025-05-10 00:41:49.642Z320.654° NNW2025-05-10 00:44:49.642Z10.922° NNE33.065°2025-05-10 00:49:49.642Z88.429° E
9 mins2025-05-10 02:26:49.642Z296.779° NW2025-05-10 02:30:49.642Z221.372° SW42.141°2025-05-10 02:35:49.642Z139.593° SSE
|